Location: Mentone
(34.5413°N, 85.5351°W)
Time: 03:46:46
(UTC-05:00)

Okean O Rocket - Visible Passes

Search period start: 25 May 2017 00:00
Search period end: 04 June 2017 00:00
Orbit: 623 x 646 km, 98.1° (Epoch: 24 May)

Date Brightness Start Highest point End Pass type
(mag) Time Alt. Az. Time Alt. Az. Time Alt. Az.
25 May 3.0 04:01:36 10° NNE 04:05:37 36° E 04:09:36 10° SSE visible
26 May 1.9 04:22:59 10° NNE 04:27:19 67° E 04:31:37 10° S visible
27 May 1.6 04:44:38 10° N 04:48:57 67° WNW 04:53:15 10° SSW visible
28 May 4.2 03:31:29 10° ENE 03:34:05 15° E 03:36:39 10° SE visible
29 May 3.4 03:52:09 10° NE 03:55:52 27° E 03:59:34 10° SSE visible
30 May 2.4 04:13:22 10° NNE 04:17:36 49° E 04:21:48 10° S visible
31 May 1.6 04:34:55 10° NNE 04:39:16 88° WNW 04:43:36 10° SSW visible
01 Jun 4.4 03:22:44 10° ENE 03:24:17 12° E 03:25:49 10° ESE visible
01 Jun 1.9 04:56:41 10° N 05:00:53 48° WNW 05:05:03 10° SSW visible
02 Jun 3.8 03:42:48 10° NE 03:46:07 21° E 03:49:24 10° SE visible
03 Jun 2.9 04:03:49 10° NNE 04:07:52 37° E 04:11:53 10° SSE visible
